Terminal Aerodrome Forecast
Issued by NWS Melbourne, FL

Home | Current Version | Previous Version | Text Only | Print | Product List | Glossary On
Versions: 1 2 3 4 5 6 7 8 9 10 11 12 13 14 15 16 17 18 19
000
FTUS42 KMLB 282345 RRA
TAFMLB
TAF
KMLB 282345Z 0100/0124 08012KT P6SM -RA SCT020 OVC060
     FM010200 08011KT 6SM BR VCSH SCT005 OVC012
     FM010800 10006KT 4SM BR BKN005
     FM011400 12010KT P6SM SCT012 BKN020=

USA.gov is the U.S. government's official web portal to all federal, state and local government web resources and services.